TimeEST,TemperatureF,Dew PointF,Humidity,Sea Level PressureIn,VisibilityMPH,Wind Direction,Wind SpeedMPH,Gust SpeedMPH,PrecipitationIn,Events,Conditions,WindDirDegrees,DateUTC
12:53 AM,70.0,64.0,81,29.94,10.0,North,5.8,-,0.00,,Overcast,10,2014-02-28 05:53:00
1:53 AM,70.0,64.0,81,29.94,10.0,North,6.9,-,N/A,,Overcast,350,2014-02-28 06:53:00
2:53 AM,70.0,64.0,81,29.93,10.0,North,4.6,-,N/A,,Overcast,10,2014-02-28 07:53:00
3:53 AM,70.0,64.0,81,29.91,10.0,Calm,Calm,-,N/A,,Overcast,0,2014-02-28 08:53:00
4:53 AM,69.1,64.9,87,29.94,10.0,East,8.1,-,0.01,,Overcast,100,2014-02-28 09:53:00
5:53 AM,69.1,64.9,87,29.93,10.0,NNE,6.9,-,0.00,,Mostly Cloudy,20,2014-02-28 10:53:00
6:53 AM,68.0,66.0,93,29.97,5.0,NNE,3.5,-,0.07,Rain,Rain,30,2014-02-28 11:53:00
7:32 AM,68.0,66.0,93,29.98,10.0,NNE,3.5,-,0.02,,Mostly Cloudy,30,2014-02-28 12:32:00
7:53 AM,69.1,66.0,90,29.99,10.0,Calm,Calm,-,0.02,,Overcast,0,2014-02-28 12:53:00
8:25 AM,68.0,64.9,90,30.00,10.0,North,10.4,-,0.00,,Overcast,360,2014-02-28 13:25:00
8:32 AM,68.0,64.9,90,30.01,10.0,North,9.2,-,0.00,,Overcast,360,2014-02-28 13:32:00
8:53 AM,69.1,64.9,87,30.03,10.0,North,8.1,-,0.00,,Overcast,360,2014-02-28 13:53:00
9:07 AM,69.1,64.9,87,30.03,10.0,North,10.4,-,N/A,,Overcast,10,2014-02-28 14:07:00
9:17 AM,69.1,64.9,87,30.03,10.0,North,10.4,-,N/A,,Overcast,10,2014-02-28 14:17:00
9:53 AM,70.0,64.0,81,30.05,10.0,North,12.7,-,N/A,,Mostly Cloudy,10,2014-02-28 14:53:00
10:04 AM,71.1,64.9,81,30.05,10.0,North,10.4,-,N/A,,Mostly Cloudy,10,2014-02-28 15:04:00
10:53 AM,72.0,64.0,76,30.06,10.0,North,10.4,-,N/A,,Mostly Cloudy,360,2014-02-28 15:53:00
11:53 AM,73.0,64.9,76,30.06,10.0,NNE,11.5,-,N/A,,Mostly Cloudy,20,2014-02-28 16:53:00
12:53 PM,73.0,64.0,73,30.04,10.0,North,9.2,-,N/A,,Scattered Clouds,360,2014-02-28 17:53:00
1:53 PM,73.0,64.9,76,30.03,10.0,North,9.2,-,N/A,,Overcast,10,2014-02-28 18:53:00
2:07 PM,72.0,63.0,73,30.03,10.0,North,8.1,-,N/A,,Overcast,360,2014-02-28 19:07:00
2:15 PM,71.1,64.0,78,30.03,10.0,NNE,8.1,-,N/A,,Overcast,20,2014-02-28 19:15:00
2:53 PM,73.0,64.9,76,30.02,10.0,North,10.4,-,N/A,,Mostly Cloudy,10,2014-02-28 19:53:00
3:53 PM,73.0,63.0,71,30.01,10.0,North,9.2,-,N/A,,Partly Cloudy,10,2014-02-28 20:53:00
4:53 PM,71.1,63.0,75,30.02,10.0,North,9.2,-,N/A,,Clear,10,2014-02-28 21:53:00
5:53 PM,69.1,61.0,75,30.04,10.0,North,8.1,-,N/A,,Mostly Cloudy,10,2014-02-28 22:53:00
6:53 PM,68.0,61.0,78,30.04,10.0,North,9.2,-,N/A,,Overcast,10,2014-02-28 23:53:00
7:21 PM,66.9,60.1,79,30.05,10.0,NNE,9.2,-,N/A,,Partly Cloudy,20,2014-03-01 00:21:00
7:53 PM,66.9,61.0,81,30.06,10.0,North,5.8,-,N/A,,Clear,10,2014-03-01 00:53:00
8:53 PM,66.9,61.0,81,30.08,10.0,North,5.8,-,N/A,,Scattered Clouds,10,2014-03-01 01:53:00
9:00 PM,68.0,61.0,78,30.08,10.0,North,4.6,-,N/A,,Mostly Cloudy,360,2014-03-01 02:00:00
9:53 PM,68.0,61.0,78,30.09,10.0,NNE,5.8,-,N/A,,Overcast,20,2014-03-01 02:53:00
10:53 PM,68.0,61.0,78,30.10,10.0,North,4.6,-,N/A,,Overcast,10,2014-03-01 03:53:00
11:53 PM,68.0,61.0,78,30.10,10.0,North,6.9,-,N/A,,Mostly Cloudy,10,2014-03-01 04:53:00